Terminal Aerodrome Forecast
Issued by NWS Central Illinois

Home | Current Version | Previous Version | Text Only | Print | Product List | Glossary On
Versions: 1 2 3 4 5 6 7 8 9 10 11 12 13 14 15 16 17 18 19 20 21 22 23 24 25 26 27 28 29
000
FTUS43 KILX 281100
TAFPIA
TAF
KPIA 281131Z 2812/2912 14007KT 5SM HZ SKC
     FM281400 15012KT P6SM SCT250
     FM281600 15015G25KT P6SM BKN250
     FM282100 15018G28KT P6SM BKN200
     FM290200 17013G25KT P6SM BKN080=

USA.gov is the U.S. government's official web portal to all federal, state and local government web resources and services.